151  
ASUS44 KJAN 201110  
RWRMS  
 
MISSISSIPPI HOURLY WEATHER ROUNDUP  
NATIONAL WEATHER SERVICE JACKSON MS  
500 AM CST THU FEB 20 2020  
 
NOTE: "FAIR: INDICATES FEW OR NO CLOUDS BELOW 12,000 FEET WITH NO  
SIGNIFICANT WEATHER AND/OR S TO VISIBILITY
.  
 
MSZ001>002-007>008-010>013-018>021-025>028-034>036-201200-  
NORTHWEST MISSISSIPPI  
 
CITY SKY/WX TMP DP RH WIND PRES REMARKS
 
BATESVILLE RAIN 39 37 93 NE6G14 30.31F WCI 35  
CLARKSDALE N/A 41 41 100 MISG 30.32R FOG  
CLEVELAND RAIN 40 40 100 N23G29 30.28R WCI 29  
GREENWOOD RAIN 42 39 89 NE15 30.23F  
GREENVILLE RAIN 42 38 85 N22G35 30.24R FOG  
OLIVE BRANCH CLOUDY 39 34 81 NE10G16 30.34S WCI 32  
OXFORD LGT RAIN 37 36 93 NE10 30.32S WCI 30  
TUNICA LGT RAIN 39 34 81 N15 30.35R WCI 31  
WINONA RAIN 40 39 96 NE15G21 30.21F WCI 32  

 
 
MSZ003>006-009-014>017-022>024-029>033-037>039-201200-  
NORTHEAST MISSISSIPPI  
 
CITY SKY/WX TMP DP RH WIND PRES REMARKS
 
ABERDEEN RAIN 43 27 52 N10 30.29R  
COLUMBUS AFB RAIN 43 40 90 N13 30.25R  
CORINTH LGT RAIN 43 30 61 N10 30.32R  
GOLDN TRIANGLE LGT RAIN 43 42 97 N15 30.24R  
STARKVILLE LGT RAIN 41 39 93 N10G17 30.25R  
TUPELO RAIN 42 37 82 N13 30.29R  

 
 
MSZ040-058-201200-  
CENTRAL MISSISSIPPI  
 
CITY SKY/WX TMP DP RH WIND PRES REMARKS
 
JACKSON INTL HVY RAIN 48 45 89 N7 30.15R FOG  
JACKSON HAWKNS NOT AVBL  
MADISON CLOUDY 45 45 100 CALM 30.17R  
MERIDIAN KEY HVY RAIN 50 47 89 N7 30.13S FOG  
MERIDIAN NAS HVY RAIN 48 46 93 N8 30.14F FOG  
RAYMOND HVY RAIN 46 46 100 VRB5 30.14R  
VICKSBURG VKS CLOUDY 48 48 100 NE8 30.15R FOG  

 
 
MSZ059>079-201200-  
SOUTH MISSISSIPPI  
 
CITY SKY/WX TMP DP RH WIND PRES REMARKS
 
BROOKHAVEN HVY RAIN 50 50 100 MISG 30.12R VSB 1  
HATTIESBURG LGT RAIN 52 51 97 CALM 30.09F  
LAUREL LGT RAIN 51 50 97 E8 30.09F  
MCCOMB LGT RAIN 53 51 93 NE3 30.07R  
NATCHEZ HVY RAIN 48 47 96 N9 30.16R  
PINE BELT LGT RAIN 51 51 100 E6 30.09F  

 
 
MSZ080>082-201200-  
COASTAL MISSISSIPPI  
 
CITY SKY/WX TMP DP RH WIND PRES REMARKS
 
BILOXI CLOUDY 57 54 88 E7 30.07F  
PASCAGOULA CLOUDY 59 56 89 NE5 30.08F  
GULFPORT CLOUDY 58 53 84 E6 30.07F  

 
 
LAZ007>009-015>016-023>026-201200-  
NORTHEAST LOUISIANA  
 
CITY SKY/WX TMP DP RH WIND PRES REMARKS
 
BASTROP LGT RAIN 43 42 98 N8 30.24R  
TALLULAH/VBURG HVY RAIN 48 45 89 N10 30.17R FOG  
VIDALIA HVY RAIN 48 46 95 N9G18 30.15R  

 
 
 
CLICK HERE TO GO TO PREVIOUS BULLETINS.

The Nexlab MS Page Main Text Page